User: anonymous   Login
Location: Unspecified
(0.0000°N, 0.0000°E)
Time: 20:33:13
(UTC+00:00)
Language:

XM-3 - Orbit

View from above orbital plane
View from above orbital plane
View from above satellite
View from above satellite

Ground track
Ground track

The orbit data is extracted from the following two-line orbital elements,

1 28626U 05008A   21204.28712771 -.00000218  00000-0  00000-0 0  9993
2 28626   0.0274  71.9637 0001686  33.5938 213.9433  1.00271604 24679
Epoch (UTC): 23 July 2021 06:53:27
Eccentricity: 0.0001686
inclination: 0.0274°
perigee height: 35779 km
apogee height: 35793 km
right ascension of ascending node: 71.9637°
argument of perigee: 33.5938°
revolutions per day: 1.00271604
mean anomaly at epoch: 213.9433°
orbit number at epoch: 2467

The dashed part of the orbit path shows where the satellite is in the earth's shadow,  

DLR